UAE4212 OMDB-ZGGG

Flight info

Callsign UAE4212
Flight time N/A
Altitude 39000
Route IVURO M677 LALDO B505 NADSO A777 VAXIM L301 RASKI L639 BPL A791 JJS Q19 CEA B465 CTG A599 LSO/N0485F410 A599 LINSO/K0898S1250 A599 GYA GYA2
Aircraft A359/H-SDE2E3GHIJ3J4J5LM1ORWXY/LB1D1

Departure

Time N/A
Airport Dubai International Airport (OMDB)

Arrival

Time 2026-05-04 12:59
Airport Guangzhou Baiyun International Airport (ZGGG)
Time Latitude Longitude Altitude Speed Heading
2026-05-04 11:06 23.22850 98.91036 38912 ft 490 kts 84°
2026-05-04 11:06 23.23271 98.94684 38900 ft 490 kts 84°
2026-05-04 11:06 23.24087 99.01780 38878 ft 488 kts 84°
2026-05-04 11:10 23.29927 99.53453 38846 ft 484 kts 84°
2026-05-04 11:12 23.33184 99.83006 38846 ft 484 kts 84°
2026-05-04 11:12 23.33972 99.90231 38846 ft 484 kts 84°
2026-05-04 11:13 23.34758 99.97464 38846 ft 484 kts 84°
2026-05-04 11:13 23.35545 100.04736 38846 ft 484 kts 84°
2026-05-04 11:14 23.36328 100.12005 38846 ft 484 kts 84°
2026-05-04 11:16 23.39415 100.40976 38846 ft 484 kts 84°
2026-05-04 11:16 23.40180 100.48226 38846 ft 484 kts 84°
2026-05-04 11:17 23.40942 100.55496 38846 ft 484 kts 84°
2026-05-04 11:19 23.43945 100.84499 38846 ft 484 kts 85°
2026-05-04 11:19 23.44693 100.91805 38846 ft 485 kts 84°
2026-05-04 11:20 23.45433 100.99070 38846 ft 485 kts 84°
2026-05-04 11:20 23.46176 101.06382 38846 ft 486 kts 84°
2026-05-04 11:22 23.49109 101.35555 38846 ft 486 kts 84°
2026-05-04 11:23 23.49837 101.42898 38846 ft 486 kts 84°
2026-05-04 11:25 23.52341 101.68414 38846 ft 486 kts 85°
2026-05-04 11:25 23.53051 101.75760 38846 ft 486 kts 85°
2026-05-04 11:27 23.56194 102.08604 38846 ft 486 kts 85°
2026-05-04 11:28 23.56884 102.15904 38846 ft 486 kts 85°
2026-05-04 11:28 23.57573 102.23244 38846 ft 486 kts 85°
2026-05-04 11:29 23.58253 102.30512 38846 ft 486 kts 85°
2026-05-04 11:29 23.58937 102.37862 38846 ft 486 kts 85°
2026-05-04 11:33 23.63594 102.89030 38846 ft 486 kts 85°
2026-05-04 11:33 23.64243 102.96316 38846 ft 486 kts 85°
2026-05-04 11:34 23.64895 103.03679 38846 ft 486 kts 85°
2026-05-04 11:34 23.65536 103.10947 38846 ft 486 kts 85°
2026-05-04 11:35 23.66181 103.18302 38846 ft 486 kts 85°
2026-05-04 11:35 23.66802 103.25600 38843 ft 486 kts 88°
2026-05-04 11:36 23.66676 103.32534 38938 ft 487 kts 93°
2026-05-04 11:36 23.66336 103.39911 39092 ft 486 kts 93°
2026-05-04 11:37 23.66037 103.47025 39191 ft 485 kts 92°
2026-05-04 11:37 23.65743 103.54632 39251 ft 485 kts 92°
2026-05-04 11:38 23.65457 103.62202 39282 ft 484 kts 92°
2026-05-04 11:38 23.65178 103.69601 39296 ft 484 kts 93°
2026-05-04 11:39 23.64903 103.76822 39303 ft 484 kts 93°
2026-05-04 11:41 23.63881 104.02882 39307 ft 484 kts 93°
2026-05-04 11:41 23.63578 104.10382 39307 ft 484 kts 93°
2026-05-04 11:42 23.63273 104.17857 39307 ft 484 kts 93°
2026-05-04 11:42 23.62968 104.25241 39307 ft 484 kts 93°
2026-05-04 11:43 23.62657 104.32668 39307 ft 484 kts 93°
2026-05-04 11:43 23.62346 104.40043 39307 ft 484 kts 93°
2026-05-04 11:44 23.62030 104.47440 39307 ft 484 kts 93°
2026-05-04 11:44 23.61715 104.54720 39307 ft 484 kts 93°
2026-05-04 11:45 23.61397 104.62013 39307 ft 484 kts 93°
2026-05-04 11:45 23.61074 104.69355 39305 ft 484 kts 93°
2026-05-04 11:46 23.60750 104.76651 39291 ft 484 kts 93°
2026-05-04 11:46 23.60422 104.83947 39263 ft 484 kts 93°
2026-05-04 11:47 23.60088 104.91262 39225 ft 484 kts 93°
2026-05-04 11:47 23.59751 104.98525 39180 ft 483 kts 93°
2026-05-04 11:48 23.59411 105.05827 39130 ft 481 kts 92°
2026-05-04 11:48 23.59064 105.13227 39078 ft 479 kts 92°
2026-05-04 11:49 23.58710 105.20713 39033 ft 479 kts 92°
2026-05-04 11:49 23.58345 105.28361 39006 ft 479 kts 92°
2026-05-04 11:50 23.57973 105.36047 38993 ft 479 kts 92°
2026-05-04 11:50 23.57603 105.43625 38986 ft 479 kts 92°
2026-05-04 11:51 23.57232 105.51118 38983 ft 479 kts 92°
2026-05-04 11:51 23.56865 105.58487 38982 ft 479 kts 92°
2026-05-04 11:52 23.56496 105.65813 38982 ft 479 kts 93°
2026-05-04 11:52 23.56125 105.73135 38982 ft 479 kts 93°
2026-05-04 11:53 23.55749 105.80499 38982 ft 479 kts 93°
2026-05-04 11:53 23.55366 105.87891 38982 ft 479 kts 93°
2026-05-04 11:55 23.53823 106.17056 39025 ft 479 kts 93°
2026-05-04 11:56 23.53430 106.24309 39031 ft 479 kts 93°
2026-05-04 11:56 23.53030 106.31641 39034 ft 479 kts 93°
2026-05-04 11:57 23.52628 106.38945 39035 ft 479 kts 93°
2026-05-04 11:57 23.52224 106.46213 39035 ft 479 kts 93°
2026-05-04 11:58 23.51817 106.53494 39035 ft 479 kts 93°
2026-05-04 11:58 23.51421 106.60500 39035 ft 479 kts 93°
2026-05-04 11:59 23.51015 106.67645 39035 ft 479 kts 93°
2026-05-04 11:59 23.50602 106.74877 39035 ft 479 kts 93°
2026-05-04 12:00 23.50187 106.82068 39035 ft 479 kts 93°
2026-05-04 12:00 23.49763 106.89300 39035 ft 479 kts 93°
2026-05-04 12:01 23.49352 106.96276 39035 ft 479 kts 93°
2026-05-04 12:02 23.47850 107.21455 39035 ft 478 kts 92°
2026-05-04 12:03 23.47415 107.28611 39035 ft 478 kts 92°
2026-05-04 12:03 23.46973 107.35828 39035 ft 478 kts 92°
2026-05-04 12:04 23.46528 107.43032 39035 ft 478 kts 92°
2026-05-04 12:04 23.46079 107.50266 39035 ft 478 kts 92°
2026-05-04 12:05 23.45628 107.57449 39035 ft 478 kts 92°
2026-05-04 12:05 23.45181 107.64539 39035 ft 478 kts 92°
2026-05-04 12:06 23.44784 107.70792 39040 ft 478 kts 93°
2026-05-04 12:06 23.44307 107.78272 39061 ft 478 kts 93°
2026-05-04 12:07 23.43824 107.85771 39076 ft 478 kts 93°
2026-05-04 12:07 23.43324 107.93461 39084 ft 478 kts 93°
2026-05-04 12:08 23.42830 108.01018 39087 ft 478 kts 93°
2026-05-04 12:08 23.42332 108.08565 39089 ft 478 kts 93°
2026-05-04 12:09 23.41840 108.15971 39090 ft 478 kts 93°
2026-05-04 12:09 23.41333 108.23548 39090 ft 478 kts 93°
2026-05-04 12:10 23.40824 108.31110 39090 ft 478 kts 93°
2026-05-04 12:10 23.40309 108.38696 39090 ft 478 kts 93°
2026-05-04 12:11 23.39794 108.46233 39090 ft 478 kts 93°
2026-05-04 12:11 23.39282 108.53667 39090 ft 478 kts 93°
2026-05-04 12:12 23.38783 108.60868 39090 ft 478 kts 93°
2026-05-04 12:12 23.38285 108.68006 39090 ft 478 kts 93°
2026-05-04 12:14 23.36249 108.96746 39090 ft 478 kts 93°
2026-05-04 12:15 23.35730 109.03919 39090 ft 478 kts 93°
2026-05-04 12:15 23.35207 109.11110 39090 ft 477 kts 93°
2026-05-04 12:16 23.34681 109.18304 39090 ft 476 kts 92°
2026-05-04 12:16 23.34157 109.25447 39090 ft 475 kts 92°
2026-05-04 12:17 23.33632 109.32575 39090 ft 475 kts 92°
2026-05-04 12:17 23.33101 109.39726 39090 ft 475 kts 92°
2026-05-04 12:18 23.32566 109.46873 39090 ft 475 kts 92°
2026-05-04 12:18 23.32029 109.54015 39090 ft 475 kts 92°
2026-05-04 12:19 23.31481 109.61238 39090 ft 475 kts 92°
2026-05-04 12:19 23.31029 109.67171 39089 ft 475 kts 93°
2026-05-04 12:20 23.30489 109.74236 39090 ft 475 kts 93°
2026-05-04 12:20 23.29936 109.81426 39090 ft 475 kts 93°
2026-05-04 12:21 23.29378 109.88635 39090 ft 475 kts 93°
2026-05-04 12:21 23.28822 109.95762 39090 ft 475 kts 93°
2026-05-04 12:22 23.28240 110.03184 39090 ft 475 kts 93°
2026-05-04 12:22 23.27648 110.10682 39090 ft 475 kts 93°
2026-05-04 12:23 23.27068 110.17989 39090 ft 475 kts 93°
2026-05-04 12:23 23.26495 110.25155 39090 ft 475 kts 93°
2026-05-04 12:24 23.25893 110.32648 39090 ft 475 kts 93°
2026-05-04 12:24 23.25299 110.40005 39090 ft 475 kts 93°
2026-05-04 12:25 23.24703 110.47331 39090 ft 475 kts 93°
2026-05-04 12:25 23.24394 110.51122 38970 ft 476 kts 93°
2026-05-04 12:25 23.24088 110.54850 38709 ft 474 kts 93°
2026-05-04 12:26 23.23800 110.58357 38463 ft 471 kts 93°
2026-05-04 12:26 23.23513 110.61839 38217 ft 468 kts 93°
2026-05-04 12:26 23.23239 110.65160 37973 ft 466 kts 93°
2026-05-04 12:26 23.22955 110.68593 37663 ft 465 kts 93°
2026-05-04 12:27 23.22663 110.72118 37261 ft 465 kts 93°
2026-05-04 12:27 23.22373 110.75613 36759 ft 465 kts 93°
2026-05-04 12:27 23.22084 110.79083 36192 ft 466 kts 93°
2026-05-04 12:27 23.21789 110.82622 35584 ft 466 kts 93°
2026-05-04 12:28 23.21499 110.86070 34972 ft 467 kts 93°
2026-05-04 12:28 23.21203 110.89592 34339 ft 468 kts 93°
2026-05-04 12:28 23.20903 110.93152 33733 ft 468 kts 93°
2026-05-04 12:28 23.20596 110.96787 33138 ft 467 kts 93°
2026-05-04 12:29 23.20238 111.00291 32491 ft 468 kts 95°
2026-05-04 12:29 23.19797 111.03804 31738 ft 471 kts 96°
2026-05-04 12:29 23.19337 111.07301 31167 ft 468 kts 96°
2026-05-04 12:29 23.18885 111.10738 30638 ft 465 kts 96°
2026-05-04 12:30 23.18437 111.14173 30185 ft 460 kts 96°
2026-05-04 12:30 23.17991 111.17628 29747 ft 456 kts 96°
2026-05-04 12:30 23.17566 111.20940 29326 ft 451 kts 96°
2026-05-04 12:30 23.17158 111.24130 28921 ft 447 kts 96°
2026-05-04 12:31 23.16732 111.27464 28496 ft 443 kts 96°
2026-05-04 12:31 23.16322 111.30670 28086 ft 439 kts 96°
2026-05-04 12:31 23.15913 111.33877 27677 ft 435 kts 96°
2026-05-04 12:31 23.15509 111.37030 27270 ft 431 kts 96°
2026-05-04 12:32 23.15096 111.40259 26854 ft 428 kts 96°
2026-05-04 12:32 23.14282 111.46596 26034 ft 421 kts 96°
2026-05-04 12:32 23.13883 111.49698 25631 ft 418 kts 96°
2026-05-04 12:33 23.13481 111.52820 25225 ft 415 kts 96°
2026-05-04 12:33 23.13081 111.55919 24823 ft 412 kts 96°
2026-05-04 12:33 23.12674 111.59063 24412 ft 409 kts 96°
2026-05-04 12:33 23.12278 111.62118 24013 ft 406 kts 96°
2026-05-04 12:34 23.11891 111.65106 23620 ft 403 kts 96°
2026-05-04 12:34 23.11515 111.68007 23239 ft 400 kts 96°
2026-05-04 12:34 23.11165 111.70703 22884 ft 398 kts 96°
2026-05-04 12:34 23.10830 111.73281 22544 ft 396 kts 96°
2026-05-04 12:35 23.10448 111.76217 22159 ft 393 kts 96°
2026-05-04 12:35 23.10067 111.79137 21771 ft 391 kts 96°
2026-05-04 12:35 23.09692 111.82008 21391 ft 388 kts 96°
2026-05-04 12:35 23.09317 111.84870 21011 ft 386 kts 97°
2026-05-04 12:36 23.08941 111.87737 20629 ft 384 kts 97°
2026-05-04 12:36 23.08568 111.90577 20251 ft 381 kts 97°
2026-05-04 12:36 23.08192 111.93436 19867 ft 379 kts 97°
2026-05-04 12:36 23.07844 111.96077 19509 ft 377 kts 97°
2026-05-04 12:37 23.07501 111.98677 19155 ft 375 kts 97°
2026-05-04 12:37 23.07127 112.01505 18771 ft 373 kts 97°
2026-05-04 12:37 23.06766 112.04235 18399 ft 372 kts 97°
2026-05-04 12:37 23.06402 112.06988 18025 ft 370 kts 97°
2026-05-04 12:38 23.06032 112.09772 17646 ft 368 kts 97°
2026-05-04 12:38 23.05666 112.12532 17271 ft 366 kts 97°
2026-05-04 12:38 23.05303 112.15259 16898 ft 364 kts 97°
2026-05-04 12:38 23.04935 112.18025 16521 ft 362 kts 97°
2026-05-04 12:39 23.04575 112.20721 16153 ft 361 kts 97°
2026-05-04 12:39 23.04215 112.23418 15783 ft 359 kts 97°
2026-05-04 12:39 23.03858 112.26088 15417 ft 357 kts 97°
2026-05-04 12:39 23.03507 112.28713 15059 ft 355 kts 97°
2026-05-04 12:40 23.03158 112.31310 14708 ft 354 kts 97°
2026-05-04 12:40 23.02856 112.33562 14403 ft 352 kts 97°
2026-05-04 12:40 23.02507 112.36156 14053 ft 350 kts 97°
2026-05-04 12:40 23.02158 112.38753 13703 ft 348 kts 97°
2026-05-04 12:41 23.01808 112.41350 13354 ft 346 kts 97°
2026-05-04 12:41 23.01478 112.43800 13019 ft 344 kts 97°
2026-05-04 12:41 23.01179 112.46015 12716 ft 342 kts 97°
2026-05-04 12:41 23.00818 112.48682 12351 ft 339 kts 97°
2026-05-04 12:42 23.00477 112.51205 12006 ft 337 kts 97°
2026-05-04 12:42 23.00139 112.53693 11666 ft 335 kts 97°
2026-05-04 12:42 22.99804 112.56165 11332 ft 333 kts 97°
2026-05-04 12:42 22.99464 112.58662 10994 ft 330 kts 97°
2026-05-04 12:43 22.99130 112.61118 10663 ft 328 kts 97°
2026-05-04 12:43 22.98789 112.63623 10342 ft 325 kts 97°
2026-05-04 12:43 22.98471 112.65954 10286 ft 311 kts 97°
2026-05-04 12:43 22.98165 112.68201 10235 ft 299 kts 97°
2026-05-04 12:44 22.97869 112.70374 10142 ft 288 kts 97°
2026-05-04 12:44 22.97582 112.72478 10071 ft 278 kts 97°
2026-05-04 12:44 22.97303 112.74528 9945 ft 275 kts 97°
2026-05-04 12:44 22.97026 112.76559 9658 ft 275 kts 97°
2026-05-04 12:45 22.96748 112.78587 9394 ft 273 kts 97°
2026-05-04 12:45 22.96472 112.80603 9139 ft 272 kts 97°
2026-05-04 12:45 22.96196 112.82609 8889 ft 270 kts 97°
2026-05-04 12:45 22.95923 112.84589 8643 ft 268 kts 97°
2026-05-04 12:46 22.95652 112.86560 8398 ft 267 kts 97°
2026-05-04 12:46 22.95383 112.88508 8157 ft 265 kts 97°
2026-05-04 12:46 22.95111 112.90477 7914 ft 264 kts 97°
2026-05-04 12:46 22.94839 112.92446 7671 ft 263 kts 97°
2026-05-04 12:47 22.94569 112.94395 7431 ft 261 kts 97°
2026-05-04 12:47 22.94305 112.96303 7320 ft 253 kts 97°
2026-05-04 12:47 22.94046 112.98162 7301 ft 241 kts 97°
2026-05-04 12:47 22.93805 112.99895 7270 ft 229 kts 97°
2026-05-04 12:48 22.93579 113.01527 7235 ft 219 kts 97°
2026-05-04 12:48 22.93368 113.03146 7156 ft 218 kts 91°
2026-05-04 12:48 22.93661 113.04709 6896 ft 215 kts 58°
2026-05-04 12:48 22.94594 113.05827 6698 ft 211 kts 38°
2026-05-04 12:49 22.95549 113.06619 6535 ft 210 kts 36°
2026-05-04 12:49 22.96559 113.07428 6364 ft 210 kts 36°
2026-05-04 12:49 22.97744 113.08381 6163 ft 209 kts 36°
2026-05-04 12:49 22.98902 113.09322 5965 ft 208 kts 37°
2026-05-04 12:50 23.00047 113.10260 5770 ft 207 kts 37°
2026-05-04 12:50 23.01188 113.11201 5574 ft 206 kts 37°
2026-05-04 12:50 23.02328 113.12143 5377 ft 205 kts 37°
2026-05-04 12:50 23.03466 113.13085 5180 ft 205 kts 37°
2026-05-04 12:51 23.04595 113.14022 4984 ft 204 kts 38°
2026-05-04 12:51 23.05725 113.14960 4786 ft 204 kts 38°
2026-05-04 12:51 23.06842 113.15887 4591 ft 203 kts 38°
2026-05-04 12:51 23.07969 113.16824 4394 ft 203 kts 38°
2026-05-04 12:52 23.09075 113.17742 4201 ft 203 kts 38°
2026-05-04 12:52 23.09954 113.18473 4047 ft 202 kts 38°
2026-05-04 12:52 23.10929 113.19282 3877 ft 202 kts 38°
2026-05-04 12:52 23.12049 113.20213 3683 ft 202 kts 38°
2026-05-04 12:53 23.13167 113.21143 3541 ft 199 kts 38°
2026-05-04 12:53 23.14250 113.22044 3511 ft 199 kts 38°
2026-05-04 12:53 23.15316 113.22929 3449 ft 191 kts 38°
2026-05-04 12:53 23.16354 113.23793 3328 ft 184 kts 38°
2026-05-04 12:54 23.17344 113.24616 3198 ft 175 kts 38°
2026-05-04 12:54 23.18296 113.25408 3026 ft 166 kts 38°
2026-05-04 12:54 23.19256 113.26011 3002 ft 157 kts 20°
2026-05-04 12:54 23.20282 113.26321 2994 ft 150 kts 15°
2026-05-04 12:55 23.21289 113.26578 2996 ft 149 kts 14°
2026-05-04 12:55 23.22295 113.26827 2969 ft 150 kts 14°
2026-05-04 12:55 23.23315 113.27087 2790 ft 149 kts 15°
2026-05-04 12:55 23.24326 113.27353 2593 ft 149 kts 15°
2026-05-04 12:56 23.25338 113.27624 2395 ft 148 kts 15°
2026-05-04 12:56 23.26356 113.27899 2195 ft 148 kts 15°
2026-05-04 12:56 23.27402 113.28183 1990 ft 148 kts 15°
2026-05-04 12:56 23.28399 113.28454 1793 ft 148 kts 15°
2026-05-04 12:57 23.29403 113.28726 1596 ft 147 kts 15°
2026-05-04 12:57 23.30420 113.29002 1396 ft 147 kts 15°
2026-05-04 12:57 23.31363 113.29257 1210 ft 147 kts 15°
2026-05-04 12:57 23.32307 113.29513 1024 ft 147 kts 15°
2026-05-04 12:58 23.33297 113.29781 828 ft 147 kts 15°
2026-05-04 12:58 23.34155 113.30013 658 ft 146 kts 15°
2026-05-04 12:58 23.35073 113.30261 479 ft 146 kts 15°
2026-05-04 12:58 23.36204 113.30564 227 ft 152 kts 15°
2026-05-04 12:59 23.37226 113.30830 73 ft 151 kts 15°
2026-05-04 12:59 23.38645 113.31228 63 ft 65 kts 15°
2026-05-04 12:59 23.38963 113.31302 63 ft 32 kts 358°
2026-05-04 13:00 23.39162 113.31259 63 ft 16 kts 342°
2026-05-04 13:00 23.39178 113.31254 63 ft 0 kts 343°
2026-05-04 13:01 23.39181 113.31253 63 ft 1 kts 343°
2026-05-04 13:01 23.39197 113.31248 63 ft 3 kts 343°
2026-05-04 13:01 23.39232 113.31236 63 ft 6 kts 343°
2026-05-04 13:01 23.39285 113.31219 63 ft 8 kts 347°
2026-05-04 13:02 23.39355 113.31218 63 ft 10 kts 13°
2026-05-04 13:02 23.39437 113.31242 63 ft 12 kts 13°
2026-05-04 13:02 23.39533 113.31267 63 ft 14 kts 14°
2026-05-04 13:02 23.39639 113.31297 63 ft 16 kts 14°
2026-05-04 13:03 23.39719 113.31310 63 ft 8 kts 343°
2026-05-04 13:03 23.39743 113.31259 63 ft 1 kts 282°
2026-05-04 13:03 23.39747 113.31240 63 ft 3 kts 282°
2026-05-04 13:03 23.39753 113.31207 63 ft 6 kts 282°
2026-05-04 13:04 23.39772 113.31120 63 ft 16 kts 283°
2026-05-04 13:04 23.39801 113.30985 63 ft 13 kts 276°
2026-05-04 13:04 23.39748 113.30917 63 ft 13 kts 191°
2026-05-04 13:04 23.39652 113.30897 63 ft 14 kts 192°
2026-05-04 13:05 23.39548 113.30866 63 ft 16 kts 194°
2026-05-04 13:05 23.39428 113.30833 63 ft 17 kts 193°
2026-05-04 13:05 23.39304 113.30801 63 ft 19 kts 193°
2026-05-04 13:05 23.39159 113.30765 63 ft 21 kts 192°
2026-05-04 13:06 23.39014 113.30727 63 ft 23 kts 194°
2026-05-04 13:06 23.38943 113.30633 63 ft 16 kts 277°
2026-05-04 13:06 23.38968 113.30504 63 ft 18 kts 286°
2026-05-04 13:06 23.38991 113.30412 63 ft 6 kts 285°
2026-05-04 13:07 23.39001 113.30372 63 ft 6 kts 285°
2026-05-04 13:07 23.39014 113.30318 63 ft 7 kts 284°
2026-05-04 13:07 23.39001 113.30261 63 ft 8 kts 218°
2026-05-04 13:07 23.38943 113.30231 63 ft 9 kts 205°
2026-05-04 13:08 23.38901 113.30208 63 ft 3 kts 207°
2026-05-04 13:08 23.38889 113.30203 63 ft 0 kts 204°